Location: Coopersdale
(40.3556°N, 78.9372°W)
Time: 03:12:53
(UTC+00:00)

Tiros 1 despin weight - Pass Details

Date: 19 January 2021
Orbit: 593 x 642 km, 48.2° (Epoch: 02 March)

Event Time Altitude Azimuth Distance (km) Brightness Sun altitude
Rises 23:44:56 0° 283° (WNW) 2,854 ? -16.2°
Reaches altitude 10° 23:47:29 10° 295° (WNW) 1,944 ? -16.7°
Maximum altitude 23:51:23 29° 356° (N) 1,095 ? -17.4°
Enters shadow 23:52:51 24° 30° (NNE) 1,243 ? -17.7°
Drops below altitude 10° 23:55:17 10° 58° (ENE) 1,928 - -18.2°
Sets 23:57:48 0° 70° (ENE) 2,827 - -18.6°
